Location: Ambatotampy
(18.8181°S, 47.6186°E)
Time: 23:40:11
(UTC+00:00)

Intercosmos 25 - Pass Details

Date: 21 January 2021
Orbit: 438 x 2877 km, 82.6° (Epoch: 24 February)

Event Time Altitude Azimuth Distance (km) Brightness Sun altitude
Exits shadow 01:08:49 34° 266° (W) 953 4.1 -17.9°
Maximum altitude 01:09:02 34° 258° (WSW) 960 4.1 -17.9°
Drops below altitude 10° 01:13:25 10° 193° (SSW) 2,301 6.7 -17.0°
Sets 01:16:31 0° 184° (S) 3,582 7.8 -16.3°
